Dewpoint
51 52 50 50 51 50 49 50 51 50 49 50 48 48 48 48 48 48 49 49 49 49 50 50 50 51 51 52 52 52 53 49 46 39 35 29 43 56 58 57 56 59 56 35 28 26 22 19 16 16 14 11 10 12 18 17 14 12 13 9 11 5 4 1 -1 -0 9 8 8 10 10 11 15 35 38 35 26 30 40 43 52 50 52 56 56 57 62 64
51 50 51 50 50 51 50 50 50 49 49 49 49 49 48 48 48 49 49 49 49 49 50 50 51 51 52 52 52 53 52 47 44 41 36 44 56 56 59 61 56 59 55 29 26 23 17 14 13 13 13 8 14 10 18 14 14 8 9 12 6 5 2 6 6 8 9 9 10 10 10 10 19 28 37 32 24 34 40 46 49 48 54 58 59 60 62 65
51 51 51 50 50 51 51 50 50 50 50 50 49 49 48 48 48 49 49 50 50 50 50 51 51 51 51 52 52 54 50 45 42 37 35 56 56 56 61 61 57 59 36 28 24 18 12 11 11 11 10 8 6 8 11 13 11 7 12 6 1 5 8 10 9 8 10 11 10 10 9 10 22 31 37 35 32 40 37 43 45 48 53 56 60 60 62 65
51 51 50 51 52 52 51 52 52 52 52 52 51 50 50 49 48 49 49 49 50 50 51 51 51 51 52 52 53 51 48 43 34 30 39 62 58 59 61 59 59 55 37 29 22 16 15 12 10 9 8 8 8 10 5 11 8 10 6 3 2 8 5 3 9 9 11 10 10 10 10 9 28 31 36 37 33 33 34 40 45 46 51 57 59 59 62 65
51 51 52 52 52 52 53 53 53 53 52 52 52 52 52 52 51 49 50 50 50 51 51 51 51 51 51 52 54 50 47 38 26 34 56 62 60 58 61 61 60 40 30 24 18 16 15 12 9 9 6 5 9 5 3 9 6 11 6 2 5 7 4 5 6 8 9 10 10 10 9 9 16 30 35 37 31 30 33 45 45 48 51 57 59 60 60 64
52 52 52 52 52 52 53 53 53 53 53 53 53 53 52 52 50 50 50 50 50 50 50 51 51 51 52 53 51 49 44 15 29 38 64 62 61 58 60 60 58 40 23 21 19 15 13 10 9 7 4 6 6 4 5 8 8 4 4 5 7 7 6 8 8 8 9 9 8 8 9 10 11 29 36 37 33 37 41 47 49 50 52 57 60 61 61 63
51 51 51 52 51 52 52 53 53 53 53 53 53 53 52 52 50 50 50 49 50 50 51 50 51 51 52 53 50 48 39 25 31 49 61 60 59 58 59 59 54 30 24 22 18 13 11 8 6 7 3 1 5 2 8 7 7 4 3 7 11 12 8 8 6 8 9 9 9 8 9 9 12 24 34 37 35 33 38 44 52 54 55 58 60 62 62 62
51 51 51 51 52 52 52 53 53 53 53 53 54 53 53 52 52 51 50 50 50 50 50 51 51 51 53 48 47 41 27 22 34 54 60 59 55 56 56 40 34 27 24 20 15 11 8 6 6 8 2 -4 7 1 7 4 5 2 1 3 4 6 7 7 7 8 9 9 9 9 9 10 11 26 33 36 34 35 38 44 52 55 57 58 62 61 61 62
51 51 51 52 52 52 52 52 52 53 53 53 54 54 53 52 52 51 51 50 49 49 50 51 51 51 53 47 44 28 20 30 36 49 49 48 42 46 42 31 27 26 25 23 18 8 10 11 12 6 4 8 7 5 7 2 7 3 3 6 6 6 8 7 9 9 8 8 9 9 9 11 13 21 33 34 37 36 40 45 50 55 57 58 59 61 62 62
51 51 52 52 52 52 52 52 52 53 53 54 54 54 53 53 52 51 50 50 49 50 50 51 51 52 49 46 41 27 26 35 46 50 44 46 41 38 33 29 29 27 24 21 16 14 15 14 18 16 15 13 9 10 12 5 9 8 6 8 7 8 8 9 8 9 10 11 10 9 10 9 16 26 23 33 40 41 41 45 51 53 56 57 59 61 62 62
51 51 51 52 52 52 52 52 53 53 53 54 54 54 54 53 52 50 51 50 50 50 50 51 51 51 46 41 32 20 29 30 41 45 47 40 35 31 28 30 29 27 23 19 16 16 21 20 21 17 16 10 9 12 11 7 12 11 10 10 9 8 8 8 10 10 9 10 11 9 7 8 11 12 18 29 37 43 43 44 50 52 55 57 58 59 61 60
51 51 51 52 52 52 52 52 52 53 53 53 54 54 53 52 52 51 51 51 51 50 50 51 50 48 44 38 26 24 34 31 36 40 41 33 30 28 28 28 29 29 23 16 18 18 21 22 22 20 15 13 12 11 11 13 10 10 11 8 7 6 6 8 7 9 11 8 7 10 7 7 8 7 18 30 36 38 42 45 47 49 54 56 58 58 58 58
51 51 51 51 52 52 52 52 53 53 53 53 53 53 53 52 52 51 51 50 50 49 49 49 51 48 46 40 23 28 29 34 36 34 34 30 26 26 26 23 22 21 15 11 14 16 17 22 21 19 16 17 11 11 14 15 11 11 10 7 4 3 4 8 9 9 8 7 8 8 8 8 6 9 21 31 34 38 41 41 44 46 51 55 58 58 58 60
50 51 51 51 52 52 52 53 53 53 53 53 53 53 53 52 52 51 51 51 49 50 52 52 50 48 47 24 25 28 31 39 35 29 27 25 21 20 20 20 20 18 16 20 21 23 22 20 21 21 20 18 12 15 14 11 11 7 7 5 8 3 5 9 9 8 6 8 8 7 12 7 7 8 19 34 34 35 36 36 42 46 50 53 57 57 57 57
51 51 51 51 51 52 52 53 52 53 53 53 53 52 52 52 52 52 52 51 51 49 49 51 49 47 45 23 31 35 48 38 32 27 23 21 18 19 20 22 20 19 20 20 21 27 25 23 22 20 16 17 16 13 10 8 8 7 3 4 4 4 8 11 15 14 6 9 9 7 14 8 9 10 18 31 33 34 33 37 42 46 47 52 53 54 52 54
51 51 51 51 51 52 52 52 53 53 52 52 52 52 52 52 51 51 51 49 45 49 49 49 47 42 33 20 40 49 42 36 33 33 28 23 19 17 19 20 22 23 22 22 23 24 23 23 19 17 14 14 12 10 11 6 9 7 8 14 8 4 7 7 13 15 14 11 9 7 7 4 8 10 21 31 33 33 32 34 41 43 45 50 51 52 51 50
51 51 51 51 52 52 52 52 52 52 51 51 51 52 52 52 52 51 51 51 50 49 47 43 44 45 39 25 33 39 29 30 32 33 32 29 24 19 21 20 22 23 24 24 23 25 23 23 24 22 14 13 10 10 9 10 14 10 9 12 12 5 5 6 11 14 14 11 10 9 6 9 12 11 13 28 29 31 30 31 39 44 45 49 49 48 49 50
52 51 51 52 52 52 52 52 52 52 51 51 51 52 51 51 51 51 50 50 47 46 47 46 42 41 22 25 25 26 29 29 32 31 32 31 26 21 20 17 19 19 24 19 24 21 20 20 15 17 19 20 16 12 11 10 14 13 13 15 10 9 10 5 8 14 16 10 13 14 11 11 10 11 12 17 27 29 32 29 34 40 43 47 47 45 45 47
52 52 52 52 52 53 53 52 52 51 51 51 52 52 52 52 50 48 45 44 45 45 41 36 41 26 18 20 27 29 30 32 31 29 29 30 28 23 24 24 20 16 18 17 16 17 15 22 23 17 15 14 13 10 7 10 9 10 11 12 12 14 5 4 14 19 17 14 8 11 11 9 12 12 14 21 26 31 32 38 41 42 41 46 45 43 43 45
52 52 52 52 53 53 53 52 51 50 50 51 51 52 52 51 48 46 44 41 34 30 31 29 27 28 26 26 27 29 33 32 25 26 28 30 28 25 21 19 18 14 17 19 20 26 23 20 16 14 12 21 23 25 26 17 14 13 13 12 8 6 9 12 14 19 21 14 11 16 17 14 15 16 19 23 28 33 34 36 41 39 40 40 41 44 45 47
52 52 52 53 53 53 53 52 50 49 49 49 51 51 36 35 33 30 31 31 32 34 33 32 31 30 28 29 29 30 27 24 25 24 25 29 26 20 17 16 17 21 16 17 22 33 30 17 16 17 21 25 26 28 30 23 23 18 15 11 8 9 8 11 17 19 18 26 12 18 16 15 18 19 19 22 22 23 30 35 39 39 38 39 40 42 44 47
52 52 53 53 53 53 52 52 50 49 49 51 48 38 35 37 38 38 36 28 32 34 35 34 36 32 31 30 30 31 31 22 22 21 24 28 23 18 16 13 14 13 19 22 21 19 18 12 20 23 28 33 34 34 29 28 25 21 15 13 10 10 7 18 21 20 20 18 12 16 14 13 20 20 20 22 22 21 26 31 34 38 38 35 33 37 42 44
51 52 53 53 53 53 51 50 49 49 49 49 47 36 36 40 44 43 41 33 34 35 35 34 32 29 28 33 34 33 29 20 19 21 21 24 21 17 14 10 13 13 19 23 16 19 16 9 24 24 30 32 34 34 31 30 29 20 14 15 13 10 11 11 23 26 27 22 19 18 16 15 19 22 22 23 22 29 39 37 39 37 35 35 36 36 38 42
51 52 52 52 52 51 51 50 49 49 50 45 38 35 38 41 43 42 40 36 33 33 34 34 31 29 26 26 33 32 23 23 21 20 23 21 17 18 15 12 12 13 10 10 14 12 7 19 23 28 29 30 29 32 29 22 16 23 25 15 11 17 16 12 23 25 31 33 30 16 17 12 14 17 19 26 27 32 30 29 31 32 30 36 40 41 42 41
50 51 51 52 51 51 50 50 49 48 47 44 37 37 39 45 46 44 42 38 38 29 38 33 35 32 32 36 35 32 28 28 27 25 25 22 18 17 14 15 14 10 8 9 11 8 8 30 29 24 22 25 29 25 26 25 15 21 25 23 20 20 21 19 22 20 21 22 24 20 10 15 13 15 16 21 23 21 22 24 24 26 29 27 29 34 38 44
50 50 50 50 50 50 50 49 47 42 39 36 36 38 43 45 46 50 42 35 23 22 29 26 31 26 34 32 33 31 28 22 17 26 22 23 21 17 16 13 15 13 11 12 10 18 16 30 28 25 27 24 22 20 24 24 15 17 19 20 19 17 22 22 22 20 10 7 21 25 11 7 16 15 19 21 19 20 23 25 22 23 24 21 23 25 29 34
50 50 50 49 49 49 46 40 39 41 35 32 37 44 45 46 54 50 42 24 19 23 25 23 24 26 28 24 30 28 25 17 19 22 24 21 20 18 16 12 14 13 15 23 18 13 16 22 23 28 29 22 21 16 26 21 15 11 29 16 15 16 22 24 22 19 13 22 24 23 13 10 10 11 21 20 19 16 18 22 25 21 24 23 25 24 29 30
50 49 49 49 47 48 49 48 43 36 29 40 42 43 46 51 53 49 40 16 21 21 20 20 20 21 22 25 25 21 21 18 15 15 16 19 19 17 17 12 10 11 18 18 11 22 30 25 25 23 22 16 13 6 28 25 17 18 31 20 18 17 24 23 18 16 18 21 13 17 15 22 14 12 19 18 14 15 16 19 22 24 25 28 29 29 28 32
50 49 48 48 47 48 49 49 45 36 39 42 44 46 47 55 49 42 28 16 25 18 19 19 17 18 14 17 19 20 19 20 16 14 15 16 16 13 15 15 14 12 13 21 15 26 22 16 19 15 13 12 13 12 16 26 20 31 28 22 21 21 22 24 19 14 19 19 13 13 21 12 8 11 14 17 13 14 18 21 20 22 24 25 31 34 34 32
49 49 48 48 48 49 50 50 46 40 41 42 47 49 53 50 43 33 22 12 25 17 16 16 14 14 11 15 14 15 20 16 16 15 16 15 16 13 13 16 13 14 14 14 12 11 20 21 28 15 11 8 15 26 26 23 29 28 24 20 19 18 22 21 19 17 19 11 12 18 22 14 6 12 11 17 26 22 21 22 23 25 25 24 33 29 31 29
49 49 49 48 48 44 47 44 40 37 42 49 50 50 51 43 35 22 19 24 19 14 15 14 9 10 11 14 13 13 13 14 15 16 13 13 14 13 13 13 13 18 17 19 17 15 13 17 19 14 14 17 15 18 27 24 24 23 23 18 17 20 20 18 17 17 14 9 15 18 19 19 6 6 12 22 22 24 25 25 26 26 24 28 33 29 31 33
49 49 49 49 46 50 46 35 45 44 47 53 53 48 44 29 28 22 20 20 22 15 14 11 9 11 11 11 13 11 12 16 15 14 11 13 17 15 14 15 20 13 12 13 12 19 17 13 13 16 21 15 12 9 19 22 23 21 20 18 15 13 16 13 14 13 9 8 20 19 17 16 11 10 23 20 20 23 27 21 24 24 25 32 28 33 33 35
49 49 50 49 50 52 50 50 49 50 54 54 48 41 33 18 19 22 22 17 19 18 16 13 9 10 10 13 10 12 15 14 16 15 16 12 14 16 13 13 16 19 11 22 16 13 9 9 11 11 18 19 13 9 15 15 19 19 16 17 14 10 9 11 7 9 5 9 18 18 20 9 8 14 23 24 25 22 24 26 26 26 30 33 30 33 34 37
49 50 50 50 50 50 51 56 52 52 52 51 44 28 24 15 17 31 31 20 17 14 13 17 17 11 11 11 11 12 10 12 11 14 13 14 10 19 16 13 14 20 21 19 9 11 7 10 11 15 16 17 15 10 11 17 17 14 14 12 15 14 12 11 5 9 7 7 20 18 17 12 9 21 24 24 23 21 20 17 25 29 29 34 32 33 35 38
49 52 56 55 53 52 53 50 54 55 52 45 33 26 17 11 19 23 24 17 15 19 14 17 10 12 11 11 12 10 15 16 12 11 12 10 17 16 20 18 20 13 16 13 23 21 6 7 15 14 15 16 13 13 15 11 12 16 16 13 13 16 14 9 16 12 12 10 14 19 15 13 20 25 24 22 18 19 19 21 25 27 29 33 33 36 37 39
49 54 53 51 51 49 50 52 56 55 51 37 24 13 11 12 15 20 19 19 16 16 17 14 14 11 14 10 10 10 16 19 9 9 12 12 18 20 19 23 22 19 20 14 20 13 11 9 13 16 16 15 14 16 15 13 13 18 11 15 11 14 13 16 22 29 21 14 9 14 22 14 25 20 21 20 17 17 18 18 21 25 28 34 34 35 36 39
52 54 52 48 41 36 50 54 50 53 44 35 21 9 16 20 21 21 19 17 15 14 15 15 18 13 16 14 12 10 12 14 11 8 12 8 20 19 20 21 20 22 22 24 21 17 19 12 14 12 11 16 18 16 15 14 12 13 12 11 13 14 17 20 13 15 13 10 13 18 15 11 11 14 17 17 17 17 17 16 19 29 29 29 34 37 38 39
50 51 46 35 34 39 51 51 52 48 38 29 18 32 24 19 19 17 16 15 17 15 15 15 22 15 16 16 13 11 15 11 14 11 11 7 17 21 20 21 19 21 21 26 23 25 18 12 9 12 13 17 17 16 14 14 15 12 11 14 13 14 13 17 18 12 10 11 9 10 11 10 4 13 16 17 17 19 17 17 20 20 25 28 32 35 38 41
51 45 37 34 35 41 52 53 50 42 36 24 22 22 22 18 14 16 15 20 16 16 17 16 19 18 15 15 13 12 11 13 11 10 9 14 11 25 20 22 20 19 21 20 22 24 25 17 12 17 14 16 15 13 12 13 15 16 16 12 12 18 18 12 17 14 12 11 13 15 9 11 10 11 19 18 18 20 18 19 19 21 25 30 34 36 36 40
40 26 28 39 36 49 54 54 41 36 28 18 15 21 27 20 15 14 15 17 16 18 20 18 16 20 16 17 13 15 12 10 9 11 6 17 8 20 21 22 21 20 19 22 19 22 25 27 14 13 17 15 11 15 12 9 16 15 14 13 14 22 18 16 19 10 11 12 10 11 10 10 15 13 13 17 18 21 21 21 23 25 27 30 34 39 39 39
44 27 32 42 37 46 51 39 30 26 25 29 25 25 22 18 15 13 16 22 17 17 17 18 19 17 19 18 15 13 13 11 10 8 7 7 4 16 25 24 24 22 20 17 17 25 20 21 16 14 13 14 14 18 19 18 18 18 15 16 10 16 12 10 11 10 11 9 10 6 7 11 22 21 17 16 21 22 20 21 23 23 27 34 38 40 40 38
29 14 31 42 43 46 38 27 28 36 30 23 25 24 24 25 17 15 14 15 19 13 16 19 18 18 19 17 16 14 13 12 9 9 8 5 11 7 23 25 27 27 23 19 21 35 32 24 19 15 12 10 7 18 21 20 21 20 18 14 10 16 15 12 11 12 11 9 10 11 12 11 26 23 19 21 23 19 22 20 23 26 32 35 37 38 40 40
21 18 38 39 43 39 30 23 31 30 25 25 22 20 19 18 17 16 16 15 15 16 18 18 21 21 20 19 16 13 13 15 11 8 10 8 16 22 24 25 28 27 23 22 21 32 38 23 17 9 9 7 7 18 22 22 20 17 19 21 19 17 16 15 13 14 10 15 12 12 13 15 29 33 31 28 26 24 28 26 26 30 35 37 37 39 38 39
25 29 30 32 43 37 28 23 19 20 26 26 27 24 19 18 20 19 18 18 20 21 22 22 19 16 24 17 20 15 14 18 14 10 13 13 19 23 24 24 26 26 25 28 25 34 20 23 19 10 8 9 10 15 11 18 19 20 18 19 18 17 20 23 24 21 18 15 11 9 11 13 32 28 26 24 24 23 20 26 28 31 36 36 36 37 38 39
30 37 32 28 36 37 25 25 24 20 27 29 27 24 21 20 23 25 24 19 18 19 25 22 22 20 20 19 20 18 16 11 19 15 18 14 20 23 23 23 26 26 29 32 37 30 20 19 18 12 8 7 7 6 7 10 16 16 22 22 22 17 24 22 18 18 15 18 14 12 10 12 24 25 24 23 22 22 22 22 27 30 33 32 34 37 38 37
25 23 31 26 31 33 33 35 32 28 27 29 29 30 25 24 22 21 20 19 19 22 22 20 18 21 21 20 22 19 18 19 14 21 13 15 20 21 22 22 25 27 36 36 33 30 26 26 22 18 12 9 11 5 20 19 17 15 17 17 21 21 19 23 20 17 15 18 17 18 18 19 22 20 20 22 24 22 25 25 26 29 33 35 37 36 36 37
31 27 31 24 29 27 27 27 27 27 26 33 24 30 28 27 22 19 19 25 19 21 22 23 20 22 25 21 26 23 22 21 18 20 20 20 19 21 21 22 23 24 34 30 29 25 26 20 22 25 22 17 14 13 15 19 17 13 14 18 17 20 24 24 19 16 20 15 12 18 20 19 19 17 20 21 22 23 26 26 25 29 34 35 36 37 39 34
30 33 35 36 31 23 28 27 26 25 24 26 30 31 27 25 24 27 19 18 19 22 25 22 19 19 22 24 27 25 26 23 26 24 27 25 19 20 18 20 20 23 26 20 24 27 25 20 23 26 21 16 15 15 16 15 15 15 14 19 22 23 24 23 23 21 23 17 14 20 21 23 19 17 18 18 21 23 21 26 27 30 32 33 35 34 32 32
32 33 32 38 32 30 30 29 32 25 26 27 27 27 28 26 26 22 24 24 19 24 19 25 25 18 19 20 22 22 27 22 24 30 28 26 27 26 23 20 20 20 19 24 21 27 24 18 21 15 16 13 14 14 15 14 14 14 18 19 20 22 23 24 24 24 22 22 22 23 24 28 23 20 18 24 22 21 22 24 31 32 33 34 33 31 30 32
30 33 33 34 31 30 32 32 30 27 26 31 27 30 23 27 27 21 20 24 26 25 21 25 22 20 22 19 22 23 33 33 32 26 30 29 27 26 25 26 21 21 18 21 20 29 20 16 28 23 20 17 16 14 13 13 17 18 16 15 16 17 19 22 24 25 26 23 25 25 28 28 23 23 18 24 29 25 28 29 32 33 32 33 31 31 32 32
37 37 38 35 23 27 29 27 25 25 23 27 25 29 26 24 27 22 21 20 26 28 27 28 24 25 21 21 28 29 28 30 31 30 30 29 25 25 26 26 18 24 19 21 26 27 25 19 21 21 17 17 13 12 11 12 11 12 15 18 18 20 22 21 23 25 25 25 25 26 25 22 22 22 21 23 27 22 23 24 31 34 32 34 32 31 32 32
37 39 40 37 24 30 25 27 24 24 23 28 30 28 27 24 22 22 25 20 20 21 23 26 30 27 25 27 29 29 28 27 28 27 24 24 23 20 19 19 17 21 23 23 24 20 21 18 17 16 14 15 11 10 9 13 14 10 16 20 19 21 20 22 21 23 25 26 24 21 21 25 27 27 22 23 27 25 23 22 32 34 34 32 33 32 32 32